�������l�o���
Date,Time,MP-1(��Sv/h),MP-2(��Sv/h),MP-3(��Sv/h),MP-4(��Sv/h),MP-5(��Sv/h),MP-6(��Sv/h),MP-7(��Sv/h),MP-8(��Sv/h),����,����(m/s),���J
2020/03/28,00:00,0.719,1.034,0.684,1.262,0.902,0.406,0.710,0.672,��쐼,4.4,��
2020/03/28,00:10,0.719,1.033,0.683,1.263,0.903,0.406,0.709,0.672,��,4.7,��
2020/03/28,00:20,0.718,1.034,0.682,1.260,0.904,0.405,0.708,0.671,��쐼,4.1,��
2020/03/28,00:30,0.719,1.032,0.681,1.264,0.905,0.407,0.708,0.671,��,5.0,��
2020/03/28,00:40,0.719,1.034,0.683,1.263,0.903,0.406,0.709,0.671,��쐼,5.7,��
2020/03/28,00:50,0.721,1.033,0.682,1.261,0.903,0.405,0.708,0.672,�쐼,5.5,��
2020/03/28,01:00,0.719,1.035,0.683,1.263,0.903,0.405,0.710,0.673,�쐼,7.2,��
2020/03/28,01:10,0.718,1.037,0.684,1.260,0.903,0.407,0.711,0.671,�쐼,6.3,��
2020/03/28,01:20,0.716,1.033,0.684,1.262,0.901,0.405,0.710,0.673,�쐼,7.1,��
2020/03/28,01:30,0.717,1.034,0.682,1.264,0.900,0.406,0.709,0.673,�쐼,6.8,��
2020/03/28,01:40,0.717,1.033,0.681,1.264,0.904,0.406,0.709,0.672,�쐼,3.9,��
2020/03/28,01:50,0.719,1.032,0.682,1.264,0.902,0.405,0.709,0.670,�쐼,2.9,��
2020/03/28,02:00,0.719,1.033,0.681,1.262,0.902,0.404,0.707,0.671,�쐼,5.6,��
2020/03/28,02:10,0.718,1.031,0.682,1.262,0.901,0.406,0.709,0.670,�쐼,6.6,��
2020/03/28,02:20,0.718,1.033,0.682,1.261,0.901,0.406,0.708,0.668,���쐼,4.0,��
2020/03/28,02:30,0.717,1.034,0.683,1.264,0.901,0.407,0.708,0.671,�쐼,4.9,��
2020/03/28,02:40,0.717,1.033,0.683,1.264,0.904,0.407,0.710,0.671,�쐼,5.3,��
2020/03/28,02:50,0.717,1.033,0.684,1.263,0.901,0.407,0.709,0.671,�쐼,5.4,��
2020/03/28,03:00,0.717,1.034,0.683,1.261,0.901,0.408,0.709,0.674,���쐼,4.7,��
2020/03/28,03:10,0.719,1.032,0.683,1.262,0.903,0.407,0.708,0.670,���쐼,3.1,��
2020/03/28,03:20,0.717,1.033,0.682,1.262,0.903,0.407,0.708,0.672,���쐼,4.0,��
2020/03/28,03:30,0.719,1.034,0.683,1.263,0.905,0.406,0.709,0.671,���쐼,5.7,��
2020/03/28,03:40,0.716,1.033,0.683,1.261,0.902,0.408,0.709,0.672,���쐼,5.8,��
2020/03/28,03:50,0.718,1.034,0.683,1.261,0.904,0.408,0.708,0.669,��,6.3,��
2020/03/28,04:00,0.719,1.034,0.684,1.261,0.904,0.406,0.708,0.671,���쐼,8.1,��
2020/03/28,04:10,0.718,1.033,0.684,1.261,0.905,0.407,0.708,0.671,�쐼,8.7,��
2020/03/28,04:20,0.722,1.035,0.683,1.263,0.905,0.406,0.711,0.671,���쐼,7.4,��
2020/03/28,04:30,0.719,1.034,0.682,1.265,0.905,0.407,0.707,0.674,���쐼,5.9,��
2020/03/28,04:40,0.720,1.036,0.684,1.263,0.902,0.405,0.709,0.671,��,3.7,��
2020/03/28,04:50,0.718,1.034,0.682,1.264,0.901,0.405,0.706,0.672,-,CALM,��
2020/03/28,05:00,0.720,1.032,0.683,1.261,0.901,0.408,0.708,0.671,�k,0.9,��
2020/03/28,05:10,0.718,1.033,0.683,1.263,0.902,0.405,0.709,0.672,��,3.6,��
2020/03/28,05:20,0.719,1.032,0.683,1.263,0.902,0.406,0.708,0.670,��,3.5,��
2020/03/28,05:30,0.719,1.033,0.682,1.262,0.901,0.406,0.706,0.671,��,0.8,��
2020/03/28,05:40,0.717,1.034,0.684,1.262,0.903,0.407,0.710,0.670,-,CALM,��
2020/03/28,05:50,0.721,1.033,0.683,1.265,0.904,0.407,0.708,0.672,���쓌,2.5,��
2020/03/28,06:00,0.717,1.031,0.683,1.264,0.902,0.407,0.709,0.672,��,2.8,��
2020/03/28,06:10,0.718,1.035,0.684,1.263,0.902,0.406,0.709,0.670,�k�k��,3.5,��
2020/03/28,06:20,0.718,1.031,0.682,1.263,0.902,0.407,0.708,0.672,�k��,6.9,��
2020/03/28,06:30,0.718,1.033,0.685,1.263,0.904,0.407,0.707,0.671,�k��,6.7,��
2020/03/28,06:40,0.719,1.034,0.684,1.264,0.904,0.407,0.709,0.670,���k��,7.4,��
2020/03/28,06:50,0.717,1.033,0.683,1.263,0.903,0.406,0.709,0.671,���k��,5.9,��
2020/03/28,07:00,0.718,1.033,0.684,1.263,0.904,0.406,0.709,0.671,��,3.9,��
2020/03/28,07:10,0.717,1.034,0.683,1.263,0.904,0.407,0.708,0.673,�k�k��,4.5,��
2020/03/28,07:20,0.717,1.035,0.680,1.264,0.903,0.406,0.707,0.672,�k�k��,6.3,��
2020/03/28,07:30,0.717,1.032,0.682,1.263,0.905,0.406,0.710,0.672,�k,4.7,��
2020/03/28,07:40,0.714,1.030,0.680,1.265,0.905,0.404,0.706,0.670,�k�k��,5.8,��
2020/03/28,07:50,0.716,1.031,0.681,1.263,0.903,0.403,0.708,0.669,�k�k��,5.0,��
2020/03/28,08:00,0.714,1.029,0.683,1.263,0.904,0.403,0.708,0.669,�k�k��,5.6,��
2020/03/28,08:10,0.713,1.025,0.681,1.262,0.903,0.404,0.708,0.669,�k�k��,4.3,��
2020/03/28,08:20,0.715,1.028,0.681,1.262,0.901,0.402,0.707,0.668,�k,4.9,��
2020/03/28,08:30,0.716,1.026,0.681,1.261,0.901,0.404,0.707,0.669,�k�k��,5.3,��
2020/03/28,08:40,0.716,1.028,0.679,1.263,0.901,0.405,0.707,0.669,�k�k��,5.5,��
2020/03/28,08:50,0.716,1.028,0.679,1.265,0.902,0.404,0.706,0.670,�k�k��,5.6,��
2020/03/28,09:00,0.715,1.024,0.681,1.265,0.901,0.404,0.706,0.667,�k�k��,6.2,��
2020/03/28,09:10,0.716,1.026,0.681,1.262,0.900,0.405,0.706,0.669,�k�k��,7.3,��
2020/03/28,09:20,0.714,1.021,0.681,1.262,0.902,0.404,0.708,0.669,�k�k��,7.1,��
2020/03/28,09:30,0.713,1.021,0.680,1.262,0.903,0.405,0.707,0.668,�k�k��,6.6,��
2020/03/28,09:40,0.715,1.021,0.682,1.261,0.902,0.404,0.706,0.669,�k,6.1,��
2020/03/28,09:50,0.715,1.023,0.679,1.261,0.903,0.404,0.706,0.668,�k,6.4,��
2020/03/28,10:00,0.715,1.024,0.683,1.264,0.904,0.403,0.707,0.669,�k�k��,6.7,��
2020/03/28,10:10,0.715,1.026,0.683,1.263,0.901,0.403,0.708,0.670,�k�k��,5.8,��
2020/03/28,10:20,0.715,1.025,0.682,1.264,0.901,0.403,0.709,0.667,�k,5.9,��
2020/03/28,10:30,0.715,1.021,0.683,1.263,0.901,0.403,0.709,0.669,�k�k��,4.7,��
2020/03/28,10:40,0.715,1.026,0.682,1.264,0.901,0.403,0.707,0.669,�k,5.8,��
2020/03/28,10:50,0.715,1.027,0.683,1.264,0.903,0.403,0.709,0.669,�k�k��,7.3,��
2020/03/28,11:00,0.715,1.024,0.682,1.262,0.900,0.403,0.706,0.670,�k�k��,9.3,��
2020/03/28,11:10,0.713,1.026,0.682,1.266,0.902,0.402,0.705,0.668,�k,8.8,��
2020/03/28,11:20,0.713,1.025,0.680,1.263,0.902,0.401,0.709,0.670,�k�k��,8.9,��
2020/03/28,11:30,0.713,1.024,0.680,1.262,0.902,0.402,0.709,0.669,�k,9.7,��
2020/03/28,11:40,0.712,1.026,0.681,1.264,0.903,0.401,0.707,0.669,�k,8.7,��
2020/03/28,11:50,0.711,1.023,0.681,1.264,0.902,0.402,0.709,0.669,�k,8.3,��
2020/03/28,12:00,0.712,1.027,0.680,1.264,0.902,0.401,0.708,0.670,�k,8.8,��
2020/03/28,12:10,0.715,1.029,0.679,1.265,0.904,0.401,0.706,0.668,�k,10.5,��
2020/03/28,12:20,0.713,1.027,0.679,1.264,0.903,0.402,0.707,0.669,�k,9.0,��
2020/03/28,12:30,0.714,1.026,0.679,1.262,0.900,0.402,0.707,0.669,�k�k��,8.6,��
2020/03/28,12:40,0.712,1.026,0.681,1.264,0.902,0.402,0.706,0.668,�k,8.7,��
2020/03/28,12:50,0.714,1.030,0.679,1.264,0.902,0.402,0.707,0.670,�k,9.8,��
2020/03/28,13:00,0.713,1.029,0.681,1.265,0.902,0.403,0.708,0.669,�k,9.8,��
2020/03/28,13:10,0.717,1.025,0.682,1.262,0.900,0.404,0.706,0.669,�k�k��,9.5,��
2020/03/28,13:20,0.714,1.026,0.682,1.264,0.903,0.404,0.708,0.668,�k,9.6,��
2020/03/28,13:30,0.719,1.026,0.682,1.265,0.901,0.404,0.707,0.669,�k,8.8,��
2020/03/28,13:40,0.716,1.027,0.682,1.264,0.903,0.404,0.706,0.667,�k,8.5,�L
2020/03/28,13:50,0.716,1.028,0.682,1.264,0.899,0.403,0.706,0.669,�k,7.7,�L
2020/03/28,14:00,0.714,1.025,0.681,1.264,0.901,0.406,0.706,0.670,�k,8.4,��
2020/03/28,14:10,0.717,1.028,0.675,1.264,0.903,0.403,0.707,0.668,�k,8.7,�L
2020/03/28,14:20,0.717,1.025,0.680,1.264,0.902,0.403,0.706,0.669,�k,7.7,��
2020/03/28,14:30,0.715,1.027,0.680,1.265,0.902,0.404,0.707,0.671,�k,8.6,��
2020/03/28,14:40,0.716,1.025,0.682,1.261,0.901,0.404,0.707,0.671,�k,8.6,��
2020/03/28,14:50,0.715,1.028,0.682,1.264,0.902,0.403,0.706,0.673,�k�k��,6.3,�L
2020/03/28,15:00,0.715,1.031,0.682,1.263,0.901,0.405,0.705,0.671,�k,7.0,�L
2020/03/28,15:10,0.715,1.026,0.681,1.261,0.897,0.404,0.706,0.671,�k,5.8,�L
2020/03/28,15:20,0.715,1.021,0.682,1.265,0.899,0.405,0.706,0.670,�k,6.7,�L
2020/03/28,15:30,0.716,1.030,0.682,1.264,0.900,0.404,0.706,0.668,�k,6.7,�L
2020/03/28,15:40,0.715,1.030,0.681,1.260,0.898,0.403,0.704,0.668,�k,7.0,�L
2020/03/28,15:50,0.713,1.029,0.681,1.262,0.898,0.406,0.705,0.669,�k�k��,5.6,�L
2020/03/28,16:00,0.715,1.029,0.680,1.261,0.897,0.404,0.704,0.668,�k�k��,4.4,�L
2020/03/28,16:10,0.713,1.028,0.681,1.262,0.897,0.403,0.705,0.669,�k,4.3,�L
2020/03/28,16:20,0.713,1.029,0.681,1.263,0.899,0.402,0.703,0.668,�k��,2.9,��
2020/03/28,16:30,0.713,1.031,0.679,1.261,0.898,0.404,0.706,0.668,���쓌,2.0,��
2020/03/28,16:40,0.714,1.030,0.679,1.262,0.897,0.402,0.705,0.668,���쓌,2.2,��
2020/03/28,16:50,0.713,1.030,0.680,1.261,0.899,0.401,0.705,0.668,���쓌,1.9,��
2020/03/28,17:00,0.710,1.027,0.681,1.260,0.898,0.402,0.705,0.668,-,CALM,��
2020/03/28,17:10,0.710,1.030,0.681,1.261,0.897,0.401,0.704,0.669,�k�k��,1.9,��
2020/03/28,17:20,0.710,1.029,0.680,1.259,0.898,0.403,0.704,0.668,���쓌,1.7,�L
2020/03/28,17:30,0.711,1.029,0.680,1.261,0.897,0.402,0.705,0.667,�쓌,3.5,��
2020/03/28,17:40,0.710,1.029,0.680,1.258,0.897,0.400,0.705,0.669,���쓌,3.1,��
2020/03/28,17:50,0.710,1.031,0.678,1.261,0.898,0.401,0.705,0.667,���쓌,3.0,��
2020/03/28,18:00,0.710,1.031,0.680,1.259,0.896,0.400,0.703,0.667,���쓌,3.0,��
2020/03/28,18:10,0.711,1.028,0.678,1.260,0.895,0.401,0.705,0.667,��,2.5,��
2020/03/28,18:20,0.710,1.028,0.677,1.259,0.896,0.401,0.703,0.667,��,1.7,��
2020/03/28,18:30,0.711,1.029,0.677,1.261,0.896,0.401,0.704,0.668,�k��,1.1,�L
2020/03/28,18:40,0.709,1.026,0.678,1.261,0.897,0.403,0.704,0.668,�k��,2.0,�L
2020/03/28,18:50,0.709,1.030,0.680,1.260,0.897,0.405,0.704,0.669,�k�k��,0.9,�L
2020/03/28,19:00,0.709,1.026,0.679,1.260,0.895,0.405,0.704,0.668,�k�k��,0.9,�L
2020/03/28,19:10,0.711,1.025,0.682,1.258,0.898,0.405,0.703,0.669,�k��,0.6,�L
2020/03/28,19:20,0.711,1.023,0.679,1.258,0.895,0.406,0.702,0.667,-,CALM,�L
2020/03/28,19:30,0.710,1.023,0.679,1.258,0.895,0.405,0.701,0.669,���k��,0.8,�L
2020/03/28,19:40,0.710,1.021,0.676,1.257,0.893,0.406,0.703,0.666,���k��,0.9,�L
2020/03/28,19:50,0.711,1.022,0.678,1.259,0.892,0.405,0.703,0.666,�k�k��,2.0,�L
2020/03/28,20:00,0.709,1.019,0.677,1.257,0.892,0.406,0.703,0.666,�k�k��,2.2,�L
2020/03/28,20:10,0.708,1.017,0.679,1.255,0.889,0.407,0.703,0.665,�k,1.5,�L
2020/03/28,20:20,0.707,1.014,0.675,1.252,0.887,0.404,0.702,0.666,-,CALM,�L
2020/03/28,20:30,0.704,1.004,0.674,1.245,0.881,0.405,0.699,0.666,�k,1.9,�L
2020/03/28,20:40,0.701,1.000,0.671,1.240,0.879,0.404,0.699,0.665,�k��,1.2,�L
2020/03/28,20:50,0.699,0.997,0.672,1.231,0.874,0.405,0.695,0.661,�k,4.3,�L
2020/03/28,21:00,0.701,0.995,0.671,1.228,0.872,0.403,0.696,0.662,�k,4.2,�L
2020/03/28,21:10,0.699,0.996,0.671,1.227,0.872,0.402,0.694,0.660,�k,4.5,�L
2020/03/28,21:20,0.697,0.994,0.668,1.226,0.869,0.402,0.693,0.660,�k�k��,6.9,�L
2020/03/28,21:30,0.696,0.990,0.669,1.220,0.866,0.402,0.693,0.661,�k��,6.8,�L
2020/03/28,21:40,0.692,0.986,0.667,1.218,0.864,0.403,0.693,0.658,�k�k��,6.3,�L
2020/03/28,21:50,0.692,0.982,0.664,1.214,0.861,0.400,0.691,0.659,�k,4.6,�L
2020/03/28,22:00,0.690,0.980,0.664,1.208,0.860,0.400,0.688,0.658,�k�k��,6.8,�L
2020/03/28,22:10,0.689,0.983,0.663,1.206,0.861,0.397,0.691,0.656,�k�k��,6.9,�L
2020/03/28,22:20,0.691,0.982,0.663,1.209,0.861,0.397,0.691,0.657,�k�k��,5.9,�L
2020/03/28,22:30,0.688,0.983,0.663,1.208,0.857,0.397,0.691,0.657,�k��,5.7,�L
2020/03/28,22:40,0.687,0.981,0.661,1.206,0.861,0.395,0.690,0.656,�k�k��,5.1,�L
2020/03/28,22:50,0.689,0.980,0.661,1.207,0.858,0.395,0.691,0.656,�k�k��,5.2,�L
2020/03/28,23:00,0.685,0.980,0.661,1.204,0.860,0.398,0.691,0.655,�k�k��,5.2,�L
2020/03/28,23:10,0.687,0.980,0.660,1.205,0.860,0.397,0.690,0.657,�k�k��,4.6,�L
2020/03/28,23:20,0.685,0.979,0.662,1.205,0.857,0.396,0.691,0.656,�k�k��,5.6,�L
2020/03/28,23:30,0.684,0.978,0.659,1.203,0.857,0.396,0.691,0.656,�k�k��,5.7,�L
2020/03/28,23:40,0.684,0.978,0.659,1.202,0.857,0.396,0.690,0.656,�k,5.8,�L
2020/03/28,23:50,0.685,0.974,0.659,1.201,0.856,0.395,0.688,0.656,�k,6.5,�L
